This demonstration page uses our WeatherBlox Daily Observations layout. Learn more.

Left ArrowRight Arrow

39.95238, -75.16362

Hourly Observations for April 2, 2022

Temp ( °F °C ) Dew Point ( °F °C ) Humidity (%) Winds ( mph kmh ) Pressure ( in mb ) Visibility ( mi km ) Precip ( " mm )
12:54 am 00:54 Cloudy 45 7.2 19 -7.2 35 35 NW 20 31 30.03 1017 10 16 0.00 0.00
1:54 am 01:54 Mostly Cloudy 44 6.7 20 -6.7 38 38 NW 20 31 30.04 1017 10 16 0.00 0.00
2:54 am 02:54 Mostly Cloudy 44 6.7 20 -6.7 38 38 WNW 17 28 30.06 1018 10 16 0.00 0.00
3:54 am 03:54 Mostly Cloudy 43 6.1 21 -6.1 42 42 NW 15 24 30.06 1018 10 16 0.00 0.00
4:54 am 04:54 Mostly Cloudy 43 6.1 21 -6.1 42 42 WNW 12 19 30.08 1019 10 16 0.00 0.00
5:54 am 05:54 Mostly Cloudy 43 6.1 21 -6.1 42 42 WNW 13 20 30.09 1019 10 16 0.00 0.00
6:54 am 06:54 Partly Cloudy 41 5 22 -5.6 47 47 WNW 9 15 30.11 1020 10 16 0.00 0.00
7:54 am 07:54 Partly Cloudy 42 5.6 21 -6.1 43 43 NNW 17 28 30.13 1020 10 16 0.00 0.00
8:54 am 08:54 Mostly Cloudy 43 6.1 21 -6.1 42 42 NW 16 26 30.15 1021 10 16 0.00 0.00
9:54 am 09:54 Mostly Cloudy 44 6.7 21 -6.1 40 40 NNW 16 26 30.16 1021 10 16 0.00 0.00
10:54 am 10:54 Mostly Cloudy 46 7.8 22 -5.6 38 38 N 16 26 30.15 1021 10 16 0.00 0.00
11:54 am 11:54 Mostly Cloudy 48 8.9 23 -5 37 37 NNW 8 13 30.13 1020 10 16 0.00 0.00
12:54 pm 12:54 Mostly Cloudy 50 10 23 -5 35 35 NNW 10 17 30.10 1019 10 16 0.00 0.00
1:54 pm 13:54 Mostly Cloudy 52 11.1 24 -4.4 34 34 NW 9 15 30.07 1018 10 16 0.00 0.00
2:54 pm 14:54 Partly Cloudy 53 11.7 25 -3.9 34 34 S 9 15 30.03 1017 10 16 0.00 0.00
3:54 pm 15:54 Mostly Sunny 54 12.2 24 -4.4 31 31 SSW 7 11 30.01 1016 10 16 0.00 0.00
4:54 pm 16:54 Mostly Sunny 55 12.8 23 -5 29 29 S 3 6 29.99 1016 10 16 0.00 0.00
5:54 pm 17:54 Partly Cloudy 55 12.8 25 -3.9 31 31 S 7 11 29.98 1015 10 16 0.00 0.00
6:54 pm 18:54 Mostly Cloudy 55 12.8 26 -3.3 33 33 SW 10 17 30.00 1016 10 16 0.00 0.00
7:54 pm 19:54 Partly Cloudy 52 11.1 28 -2.2 40 40 S 7 11 29.99 1016 10 16 0.00 0.00
8:54 pm 20:54 Partly Cloudy 49 9.4 29 -1.7 46 46 S 5 7 29.98 1015 10 16 0.00 0.00
9:54 pm 21:54 Partly Cloudy 47 8.3 30 -1.1 52 52 S 9 15 29.98 1015 10 16 0.00 0.00
10:54 pm 22:54 Partly Cloudy 46 7.8 33 0.6 61 61 S 7 11 29.96 1015 10 16 0.00 0.00
11:54 pm 23:54 Partly Cloudy 45 7.2 34 1.1 66 66 SSW 8 13 29.96 1015 10 16 0.00 0.00

Powered by AerisWeather